Theta_e
315 314 314 313 312 310 310 309 308 307 306 306 306 306 305 306 305 305 304 303 302 301 299 298 296 295 294 293 293 293 293 293 292 292 292 292 292 291 291 291 291 291 291 291 291 291 291 291 291 291 292 292 292 292 293 293 293 294 295 297 298 300 301 303 303 303 302 301 301 301 301 302 302 301 302 303 303 303 303 303 303 303 303 303 304
312 311 309 309 308 307 307 306 306 306 306 306 306 305 305 304 303 301 299 298 296 295 294 293 293 293 293 293 293 292 292 292 292 292 292 292 291 291 291 291 290 291 291 291 290 291 291 291 291 291 291 292 292 292 292 292 293 293 293 294 295 296 297 299 301 301 300 299 298 299 299 299 300 299 300 301 301 301 301 302 302 302 302 302 302
308 307 307 306 305 305 305 305 305 305 305 305 304 303 301 299 297 296 294 293 293 293 293 293 293 293 292 292 292 292 292 292 291 291 291 291 291 290 290 290 290 290 290 290 290 290 290 291 291 291 291 291 292 292 292 292 292 293 293 293 294 294 295 296 298 299 299 298 297 297 297 298 298 298 298 299 299 300 300 300 300 301 301 301 301
306 305 305 304 304 304 304 305 305 304 303 301 299 297 295 294 293 293 293 293 293 292 292 292 292 292 292 292 292 292 292 291 291 291 290 290 290 290 290 290 290 290 290 290 290 290 290 290 290 290 291 291 291 291 291 292 292 292 293 293 294 294 294 295 296 297 298 298 297 296 296 296 297 297 297 298 298 298 299 299 299 299 299 300 300
304 304 304 303 304 304 304 303 301 299 297 296 294 293 293 293 293 292 292 292 292 292 292 292 292 292 292 292 291 291 291 291 291 290 290 290 290 290 290 290 290 290 290 289 289 289 289 290 289 290 290 290 290 290 291 291 291 292 292 292 293 293 294 294 295 295 296 297 296 295 295 295 296 296 296 297 297 297 297 298 298 298 298 299 299
303 303 304 304 302 300 299 297 296 294 293 293 293 292 292 292 292 292 292 292 292 292 292 292 292 292 291 291 291 291 290 290 290 290 290 289 289 289 289 289 289 289 289 289 289 289 289 288 289 289 289 289 289 289 290 290 290 291 291 292 292 292 293 293 294 294 295 295 295 295 295 295 295 295 295 296 296 296 297 297 297 297 297 298 298
303 303 302 300 297 295 294 293 293 293 293 292 292 292 292 292 292 291 291 291 291 291 291 291 291 291 291 291 291 290 290 290 290 290 290 289 289 289 289 289 288 288 288 288 288 288 288 288 288 288 288 288 288 289 289 289 290 290 290 291 291 292 292 292 293 293 293 294 294 294 294 294 294 294 294 295 295 296 296 296 296 296 296 297 297
301 300 298 295 293 293 292 292 292 292 292 292 292 292 291 291 291 291 291 291 291 291 291 291 290 290 290 290 290 290 290 290 290 290 290 289 289 288 288 288 288 288 288 288 288 288 288 288 288 288 288 288 288 288 288 288 289 289 289 290 291 291 292 292 292 292 293 293 293 293 293 293 294 294 294 294 294 294 295 295 295 295 295 296 296
297 295 294 293 292 292 292 292 292 292 292 291 291 291 291 291 291 291 291 291 291 290 290 290 290 290 290 290 290 290 290 290 290 289 289 288 288 288 288 288 288 288 288 288 288 288 288 288 288 287 287 287 287 288 288 288 288 289 289 289 290 291 291 291 291 292 292 292 292 292 292 292 293 293 293 293 293 293 294 294 295 295 295 295 295
294 293 293 292 292 292 292 291 291 291 291 291 291 291 291 291 291 290 290 290 290 290 290 290 290 290 290 290 290 290 290 290 289 289 288 288 288 288 288 288 288 287 287 287 287 287 287 287 287 287 287 287 287 287 287 287 288 288 288 288 289 290 290 290 291 291 291 291 291 292 292 292 292 292 292 292 292 292 293 293 294 294 295 295 295
293 292 292 291 291 291 291 291 291 291 291 291 290 290 290 290 290 290 290 290 289 290 290 290 290 290 290 290 289 289 289 289 289 289 288 288 287 287 287 287 287 287 287 287 287 287 286 286 286 286 286 286 286 286 287 287 287 287 287 287 288 288 289 290 290 290 291 291 291 291 291 291 291 292 292 292 292 292 292 292 293 293 294 294 294
292 292 291 291 291 291 290 291 291 290 290 290 290 290 290 290 290 290 290 289 289 290 289 289 289 289 289 289 289 289 288 288 288 288 288 288 287 286 286 286 286 286 286 286 286 286 286 286 286 286 286 286 286 286 286 286 286 286 286 287 287 287 288 288 289 290 290 291 291 291 291 291 291 291 291 291 291 291 291 292 292 293 293 294 294
292 291 291 290 290 290 290 290 290 290 290 290 290 289 289 289 289 289 289 289 289 289 289 289 288 288 288 288 288 288 288 288 288 287 287 287 286 286 285 285 285 285 285 285 285 285 285 285 285 285 285 285 285 285 285 285 285 286 286 286 286 287 287 287 288 289 289 290 290 291 291 291 291 291 291 291 291 291 291 291 292 292 292 293 294
291 290 290 290 290 290 290 290 290 289 289 289 289 289 289 289 289 289 289 289 289 289 288 288 288 288 288 288 288 288 287 287 287 287 286 286 285 285 285 285 284 284 284 284 284 284 284 284 284 284 284 284 284 285 285 285 285 286 286 286 287 287 287 287 288 288 288 289 289 290 290 290 291 291 291 291 291 291 291 291 291 291 292 292 293
290 290 289 289 289 289 289 289 289 289 289 289 289 289 289 289 289 289 288 288 288 288 288 288 288 288 287 287 287 287 287 287 286 286 286 285 284 284 284 284 284 284 284 284 283 284 284 284 284 284 284 284 284 284 285 285 286 286 286 286 286 286 286 286 286 287 287 288 288 289 289 289 290 290 290 290 291 291 291 291 291 291 291 291 292
289 289 289 289 289 289 289 289 289 288 288 288 288 288 288 288 288 288 288 287 288 287 288 288 287 287 287 286 286 286 287 286 286 285 285 284 283 283 283 283 283 283 283 283 283 283 283 283 283 283 284 284 284 284 285 285 285 285 284 284 284 284 284 285 285 285 286 286 287 287 287 287 288 288 289 290 290 290 290 290 290 291 291 291 292
289 289 289 288 288 288 289 289 288 288 288 288 288 288 288 288 288 288 287 287 287 287 287 287 287 286 286 286 285 285 286 286 285 284 284 283 282 282 282 282 282 282 282 282 282 282 282 283 283 283 283 283 283 284 284 284 283 283 283 284 284 284 284 284 285 285 285 285 285 286 286 287 287 287 288 288 288 289 290 290 290 290 290 290 291
289 289 288 288 288 288 288 288 288 288 288 288 288 287 287 287 287 287 287 287 287 287 287 287 286 285 285 285 285 285 285 285 284 283 282 281 281 281 281 281 281 281 281 281 282 282 282 282 282 282 282 282 282 282 282 283 283 283 284 284 284 285 285 285 285 284 284 284 285 285 286 286 286 286 287 287 287 287 289 289 290 290 290 290 290
288 288 288 288 288 288 288 288 288 288 288 287 287 287 287 287 287 287 287 287 287 287 286 286 286 285 285 285 285 284 284 283 283 282 281 280 280 280 280 280 281 281 281 281 281 281 281 281 280 281 281 281 281 282 282 283 283 283 284 284 284 285 284 284 284 284 284 284 284 284 284 285 285 286 286 286 285 286 287 289 289 290 290 290 290
288 288 288 287 288 287 287 287 287 287 287 287 287 287 287 286 287 286 286 286 286 286 285 285 285 285 285 285 284 284 283 282 282 281 280 280 280 280 280 280 280 280 280 280 280 280 280 280 279 280 280 280 281 282 282 283 283 283 284 284 284 284 284 284 284 284 284 284 284 284 284 284 285 285 286 286 286 286 287 289 289 289 289 289 290
287 287 287 287 287 287 287 287 287 287 287 286 286 286 286 286 286 286 286 286 285 285 284 284 285 285 285 284 283 283 282 282 281 280 279 279 279 280 280 280 280 280 279 279 279 279 279 279 279 279 279 280 281 281 282 282 283 283 283 283 283 283 283 284 284 283 283 284 284 284 284 285 285 286 286 286 286 287 288 288 289 289 289 289 290
287 287 287 286 287 286 286 286 286 286 286 286 286 286 286 286 286 286 285 284 284 284 284 285 285 285 284 284 283 283 282 281 280 279 278 278 278 279 279 279 279 279 279 279 279 279 279 278 278 279 279 280 281 281 282 282 282 283 283 283 283 283 283 283 283 283 284 284 284 285 285 285 286 286 286 286 287 287 288 288 288 288 289 289 290
286 286 286 286 286 286 286 286 286 286 286 286 286 286 286 285 285 284 283 283 283 284 284 285 285 285 284 283 282 283 282 281 280 279 277 277 278 278 278 279 279 279 279 278 278 278 278 278 278 279 280 280 281 281 281 281 281 281 282 282 282 282 282 282 283 283 284 284 284 285 285 285 286 286 286 287 287 287 288 288 289 289 289 289 290
286 286 286 286 286 285 285 286 285 285 285 286 286 285 285 284 282 281 281 282 283 284 284 283 282 282 282 281 281 281 282 281 279 278 276 276 277 277 278 278 278 278 278 278 277 277 278 278 278 279 280 280 280 280 280 280 280 280 280 281 281 281 282 282 283 283 284 284 285 285 285 285 286 286 286 287 287 287 288 288 288 289 289 289 289
285 286 285 285 285 285 285 285 285 285 285 285 285 284 283 282 281 281 282 282 283 282 281 280 280 279 280 279 278 278 279 279 278 277 276 276 276 277 277 277 277 277 277 277 277 277 278 278 279 279 279 279 279 278 278 278 279 279 280 280 280 281 282 282 283 283 284 284 285 285 285 286 286 286 286 287 287 287 287 287 287 288 288 287 287
285 285 285 285 285 285 285 284 284 284 284 284 283 283 282 281 281 281 282 282 281 280 279 278 278 278 278 277 276 276 277 277 277 276 275 275 276 276 276 276 277 277 277 276 277 277 278 278 278 278 277 277 277 277 277 277 278 278 279 280 281 281 281 281 282 283 283 284 285 285 286 286 286 286 287 287 286 286 287 286 286 286 285 285 284
285 285 284 284 284 284 284 283 283 284 283 282 282 281 281 281 281 281 281 280 280 279 278 277 277 276 276 275 275 275 275 276 276 275 275 275 276 276 276 276 276 276 276 276 277 277 278 277 277 276 276 276 276 276 277 277 278 278 279 280 280 280 280 281 282 282 283 284 284 285 286 286 287 287 287 286 286 286 286 285 284 283 283 282 282
285 284 284 284 283 283 283 283 283 282 282 281 281 280 280 280 280 280 280 279 279 278 277 276 275 275 275 275 274 274 274 274 275 275 275 276 276 276 276 276 276 276 276 277 277 277 277 276 275 275 275 275 276 276 276 277 278 279 280 279 279 279 280 281 282 282 283 283 284 284 285 286 286 286 286 286 286 286 285 284 282 281 281 280 279
284 284 283 283 282 282 283 283 282 281 281 280 280 280 280 280 280 279 279 278 278 277 276 275 275 274 274 274 274 274 274 274 274 275 275 276 276 276 276 276 276 276 277 277 277 276 275 274 274 274 274 275 275 276 276 277 278 279 278 277 278 279 280 281 281 282 283 283 284 284 285 285 286 286 286 286 285 285 284 282 281 280 279 278 277
283 282 282 282 282 283 282 282 281 281 281 280 279 279 279 279 279 279 278 278 277 275 275 274 274 274 274 273 273 273 273 274 274 275 275 275 275 276 276 276 276 276 277 277 276 275 274 274 274 274 274 275 275 276 277 278 278 277 277 277 278 279 279 280 281 282 282 283 284 284 285 285 285 286 286 285 285 284 282 281 280 279 278 277 275
282 282 282 282 283 282 282 281 281 280 280 280 280 280 279 278 278 278 277 277 276 275 274 274 274 273 273 273 273 273 273 273 274 274 274 274 275 275 275 276 276 276 276 275 274 274 273 273 273 274 274 275 276 277 277 277 276 276 276 276 277 277 278 279 280 281 282 283 283 284 284 285 285 285 285 285 284 282 280 279 278 277 276 275 274
283 282 282 282 282 281 281 281 281 280 280 280 280 280 279 278 277 276 276 276 275 274 273 273 273 273 272 272 272 272 272 273 273 273 273 274 274 274 275 275 274 274 274 273 273 272 272 273 273 273 274 275 275 275 274 274 274 274 275 275 276 277 278 279 280 280 281 282 283 283 284 284 285 285 285 285 283 280 279 277 277 276 275 274 273
283 283 282 281 281 280 281 281 280 280 280 279 279 279 278 277 276 275 275 275 275 274 273 273 273 273 272 271 271 272 272 272 272 272 273 273 273 273 273 273 272 272 272 271 271 271 271 272 273 273 274 274 273 272 271 272 272 272 273 274 275 277 278 278 279 280 281 282 282 283 283 284 284 285 284 283 281 279 277 277 276 275 274 273 272
283 283 282 281 281 281 280 280 280 279 279 278 278 277 276 275 273 272 272 273 274 274 274 274 273 273 272 271 271 271 271 271 271 272 272 272 272 272 271 270 269 269 270 269 270 270 270 271 271 272 271 271 270 270 270 270 271 271 272 274 275 276 277 277 278 279 280 281 281 282 283 283 284 284 283 281 279 278 277 276 275 274 273 272 271
281 281 281 280 281 281 280 280 279 278 278 278 277 276 275 273 272 270 270 270 270 272 273 273 273 273 272 271 271 272 272 271 271 271 271 270 270 270 269 268 268 268 268 268 268 269 269 269 269 269 269 268 268 268 268 269 270 270 271 273 274 275 276 277 278 279 279 280 280 281 282 282 283 282 281 279 278 277 276 275 274 273 272 271 270
280 280 280 279 280 280 279 278 277 277 278 277 277 275 274 272 270 269 269 269 269 269 270 271 272 272 272 271 271 272 272 271 270 270 269 269 269 268 267 267 267 267 267 267 267 267 267 267 267 267 267 267 267 267 267 268 269 269 270 272 274 274 275 276 277 278 278 279 279 280 281 281 281 281 279 278 277 276 275 274 273 272 271 271 270
279 280 279 279 279 278 277 276 276 277 277 276 275 274 272 270 269 269 269 269 269 269 270 270 270 271 271 270 270 271 271 270 269 269 268 268 267 267 266 266 266 266 266 266 266 266 266 266 266 265 265 266 266 266 267 267 268 269 270 271 272 273 274 275 276 276 277 277 278 279 280 280 280 279 278 277 276 275 274 273 272 271 271 270 270
279 279 279 278 277 276 276 276 276 277 276 275 273 272 270 269 269 269 270 270 270 270 271 270 269 269 269 269 268 268 269 268 268 268 267 267 266 266 265 265 265 265 265 265 265 265 265 265 265 265 265 265 265 266 266 266 267 268 269 269 270 271 273 274 275 275 276 276 277 278 278 278 278 277 277 276 275 274 273 272 271 271 270 270 270
277 277 277 277 276 275 276 276 276 276 274 273 271 270 269 269 269 270 270 271 271 271 271 270 270 268 268 268 267 267 267 267 266 266 266 266 265 265 265 265 265 265 265 264 264 264 264 264 264 264 264 264 265 265 265 265 266 267 267 268 268 270 271 273 274 274 275 275 276 277 277 277 277 276 276 275 274 273 272 272 271 270 270 270 269
276 276 276 275 275 275 276 276 275 274 273 271 270 269 269 269 270 270 271 271 271 271 270 269 269 269 268 267 267 266 266 266 265 265 265 265 265 265 264 264 264 264 264 264 264 264 264 264 264 263 264 264 264 265 265 265 265 265 266 266 267 268 270 271 273 273 274 275 276 276 276 276 276 276 275 274 273 273 272 271 270 270 269 268 267
276 276 275 275 275 275 275 275 274 273 271 270 269 269 269 270 270 270 270 270 270 269 269 269 269 268 267 267 266 266 266 266 265 265 265 265 265 265 264 264 264 264 264 264 264 264 264 264 264 263 263 264 264 264 265 265 265 265 265 265 266 267 268 270 271 272 273 274 275 276 276 276 275 275 274 273 272 272 271 270 270 269 268 267 266
275 275 275 275 275 275 275 274 273 272 270 269 269 269 270 270 270 270 270 269 269 268 268 268 268 268 267 267 266 266 266 266 266 266 265 265 265 265 264 264 264 264 264 264 264 264 264 264 264 264 264 264 264 264 265 265 265 265 265 265 265 266 267 269 270 271 272 273 274 275 275 275 275 274 273 272 272 271 270 269 268 267 266 266 266
275 275 275 275 275 275 274 273 272 271 270 269 269 269 270 270 269 269 269 269 268 267 267 267 267 267 267 266 266 266 266 266 266 266 265 265 265 265 264 264 264 264 264 265 265 264 264 264 265 265 265 264 264 265 265 265 265 265 265 265 265 266 267 268 269 270 272 273 274 275 275 275 274 273 273 272 271 270 269 268 268 267 266 266 266
274 274 274 274 273 273 272 271 271 270 269 269 269 269 269 269 269 269 268 268 268 267 267 266 266 266 266 266 265 265 266 266 266 265 265 265 265 265 265 265 265 265 265 265 265 264 264 264 265 266 266 265 264 265 265 265 265 265 265 265 266 266 267 268 269 270 271 272 273 274 274 274 274 273 272 272 271 270 269 268 267 266 266 265 265
274 274 274 273 272 272 271 270 270 269 269 268 268 268 268 268 268 268 268 268 267 267 266 266 265 265 265 265 265 265 265 265 265 265 265 265 265 265 265 265 265 265 265 265 265 265 264 264 264 265 267 267 265 265 265 266 266 266 266 266 266 265 266 268 269 270 271 272 273 273 274 273 273 272 272 271 270 269 268 267 267 266 266 265 265
273 274 273 273 272 271 270 270 269 269 268 268 268 268 268 268 268 267 267 267 267 266 266 266 265 265 264 264 264 264 264 264 264 264 264 264 264 265 265 265 265 266 266 266 265 265 265 264 264 265 266 267 266 265 265 266 267 266 266 266 266 266 266 268 270 270 271 271 272 273 273 273 273 272 271 271 270 269 268 267 266 266 266 265 265
273 273 273 272 272 271 270 269 269 268 268 267 268 268 267 267 267 267 267 266 266 266 266 265 265 265 264 264 264 264 264 264 264 264 264 264 264 264 264 264 265 265 266 266 266 265 265 265 265 265 265 266 267 266 265 265 266 267 267 267 267 267 267 269 270 270 270 271 271 272 273 273 272 272 271 271 270 269 268 267 266 266 266 265 265
272 272 271 271 270 269 269 268 268 268 268 268 268 267 267 267 266 266 266 266 266 265 265 265 265 265 265 265 265 264 264 264 264 264 264 264 264 264 263 263 264 264 265 265 265 265 265 265 265 265 265 266 266 266 266 265 266 267 267 268 268 268 269 270 270 271 270 271 271 271 272 272 272 272 271 271 270 270 268 267 267 266 266 265 265
271 271 271 270 269 269 268 268 268 268 268 268 267 267 266 266 266 266 265 266 265 265 265 265 265 265 265 265 265 265 264 264 264 264 264 264 264 264 263 263 263 263 263 264 264 265 265 265 265 266 265 265 266 266 266 265 265 266 267 267 268 269 269 270 270 271 271 271 271 271 271 271 271 271 271 271 270 270 269 268 267 266 266 265 265
270 270 270 270 269 269 269 268 268 268 267 267 266 266 266 265 265 265 265 265 265 265 265 265 265 265 265 265 265 264 264 264 264 264 264 264 264 264 264 264 264 263 263 263 263 264 264 265 265 265 265 265 265 265 266 265 265 265 266 267 268 269 269 270 270 271 271 271 270 270 271 271 271 271 271 270 270 269 269 268 267 267 266 265 265
269 269 269 269 269 268 268 267 267 267 266 266 266 266 265 265 265 265 265 265 265 265 265 265 265 265 265 265 264 264 264 264 264 264 264 264 264 264 264 264 264 263 263 263 263 263 263 264 264 265 265 265 265 265 265 265 265 265 266 267 268 268 269 269 270 270 270 270 271 271 271 271 271 271 270 270 270 269 269 268 268 267 266 265 265
Wind_Speed
24 23 22 21 21 20 20 19 19 18 18 19 19 20 19 19 19 19 19 19 18 18 18 17 17 17 17 17 17 17 17 17 16 16 16 17 17 17 18 18 18 19 20 20 20 20 21 22 23 24 22 23 24 24 24 24 23 23 21 21 24 21 23 26 18 22 43 46 37 38 37 36 40 40 35 37 39 37 38 40 40 40 40 41 42
24 24 23 23 22 23 23 22 21 21 22 22 22 22 22 21 20 19 20 19 18 18 18 17 17 17 17 17 17 17 17 17 17 17 17 18 18 18 19 19 20 21 21 23 23 23 24 25 26 27 26 26 27 27 27 27 25 26 25 22 25 26 23 26 25 21 32 46 43 38 37 35 39 43 37 35 39 40 39 40 40 40 41 42 43
25 25 26 26 25 25 25 24 24 24 25 25 24 24 23 21 20 19 20 19 18 18 17 17 17 16 16 17 17 17 17 17 17 18 18 19 19 19 19 20 21 22 23 24 26 26 26 28 29 30 29 29 30 31 30 31 29 28 29 27 26 30 27 25 28 26 28 41 46 42 38 36 38 42 40 37 38 39 41 42 41 41 43 43 44
27 28 29 28 28 28 28 27 27 26 26 26 25 24 23 21 20 19 19 18 17 17 16 16 16 16 16 17 17 17 17 17 18 18 18 19 19 20 21 22 23 24 25 26 28 28 29 30 32 32 32 32 34 35 34 34 34 31 32 32 30 32 32 27 28 31 30 34 44 47 43 39 40 43 40 38 39 40 41 42 41 42 44 43 43
31 31 31 31 30 30 29 28 28 27 27 26 24 23 22 21 20 19 18 17 17 16 16 16 16 16 17 17 17 17 18 18 18 18 19 19 20 22 23 24 25 26 27 28 29 30 30 32 34 33 33 34 35 37 37 36 36 35 34 36 35 34 34 31 29 31 32 32 40 48 48 43 43 45 40 36 39 41 39 39 40 41 43 43 42
33 33 33 33 32 31 30 29 28 27 26 25 24 22 21 20 19 18 17 16 16 15 15 16 16 16 17 17 18 18 18 18 19 20 21 21 22 23 25 26 27 28 29 30 31 31 32 33 35 34 33 35 37 37 39 38 37 38 37 37 38 36 35 34 32 31 33 35 38 44 49 47 44 45 41 33 34 39 38 38 40 41 40 40 41
33 33 33 33 33 31 30 28 28 27 25 24 23 21 20 19 18 18 16 15 15 15 15 15 16 17 17 18 18 18 19 20 20 22 22 23 24 25 26 27 28 29 30 31 32 32 34 34 34 35 34 35 37 38 39 39 39 40 39 38 38 37 35 35 34 31 31 34 35 38 42 45 44 44 42 36 33 37 35 33 37 41 38 35 37
34 34 34 34 32 31 29 28 26 25 24 23 22 20 19 18 17 16 15 14 15 15 15 15 15 16 17 18 18 19 20 20 21 22 23 24 25 25 27 28 29 30 31 32 33 33 34 34 34 35 35 35 36 37 38 39 40 42 42 39 37 37 37 36 34 32 30 30 32 34 37 40 42 42 40 35 31 32 32 29 31 38 38 34 35
35 34 34 33 32 30 29 27 26 25 23 22 21 20 18 17 16 15 14 14 15 15 15 15 16 16 17 17 18 18 19 19 20 21 22 24 25 25 27 28 29 31 32 33 34 34 34 35 36 35 35 35 35 36 36 36 37 40 43 42 38 37 37 36 34 32 30 28 30 33 32 34 38 37 34 33 29 29 32 31 30 34 37 37 39
35 34 33 32 31 29 28 27 25 24 22 21 20 19 17 16 15 14 14 14 14 15 14 15 15 16 16 16 17 17 18 18 19 20 22 23 25 25 27 28 29 31 33 35 36 36 35 36 37 36 35 35 35 35 35 36 35 37 40 41 41 39 38 37 36 33 29 28 30 31 28 29 35 35 33 36 35 32 33 32 30 32 32 31 34
34 34 33 31 30 29 27 26 24 23 21 20 19 18 16 15 14 14 14 14 14 14 14 14 15 15 15 16 16 17 18 19 20 21 22 23 25 26 27 29 30 31 33 34 36 37 37 37 37 36 35 34 35 35 35 36 36 36 38 39 39 40 39 38 38 36 32 30 32 33 29 30 37 39 37 38 37 33 32 31 29 28 26 20 20
34 33 32 31 29 28 26 25 23 21 20 19 18 17 15 14 14 13 12 13 12 12 13 13 14 14 15 16 16 17 18 19 20 22 24 24 25 26 28 29 31 32 33 34 35 36 38 39 40 38 35 33 33 35 36 38 38 37 38 39 38 39 38 38 38 38 36 34 34 35 34 34 37 40 39 37 36 35 33 32 29 27 26 22 18
33 32 31 30 28 27 25 24 23 21 19 17 16 16 14 13 13 12 11 12 11 11 12 13 14 14 15 16 17 18 19 21 22 24 25 25 26 26 28 29 31 32 33 33 34 35 36 38 41 42 39 35 33 33 35 38 41 41 41 40 39 39 38 37 36 37 39 40 38 39 40 39 38 40 41 40 38 37 35 33 32 29 28 27 25
32 31 30 28 27 26 24 23 22 20 18 16 15 14 13 12 12 11 10 10 11 11 12 13 14 14 15 16 18 20 21 22 23 25 25 26 26 27 28 30 31 32 33 32 33 34 34 35 38 41 43 40 36 34 35 38 41 43 42 41 41 40 39 37 35 34 36 38 39 42 44 43 43 45 47 45 42 40 38 36 36 34 34 34 36
31 30 29 27 26 24 23 21 20 19 17 15 14 13 12 11 11 10 10 10 10 11 12 13 14 15 16 17 19 20 22 22 23 25 26 27 27 27 29 31 32 33 33 32 31 32 32 33 34 38 41 42 40 37 35 36 37 39 42 43 43 43 41 39 37 35 36 37 38 41 43 45 47 48 48 47 45 43 43 43 43 41 40 40 40
30 29 28 26 25 24 22 20 19 17 15 14 13 12 11 11 10 9 9 9 10 11 12 13 14 15 17 18 19 21 22 23 24 25 26 27 28 28 30 31 33 34 35 33 32 32 31 31 33 36 38 40 40 37 34 34 36 39 41 42 44 46 46 44 41 39 38 38 40 43 45 47 48 49 49 48 47 48 48 47 44 41 37 32 30
30 29 27 26 24 23 21 19 18 16 14 12 12 11 10 9 9 8 8 9 10 11 12 14 15 16 17 19 20 21 23 24 24 25 26 27 28 29 31 32 33 34 35 35 33 33 32 31 31 33 36 38 38 38 37 37 38 39 39 40 43 46 48 48 45 43 43 43 45 46 46 46 47 47 49 48 48 51 48 41 37 36 31 21 17
30 29 27 25 24 22 20 18 17 15 13 11 11 10 9 8 8 8 8 9 11 12 13 14 15 16 18 19 20 21 22 24 24 24 25 25 27 28 28 31 33 34 36 37 36 35 34 32 31 31 33 36 38 39 39 39 38 38 38 39 40 42 45 47 47 49 50 49 48 46 44 45 46 46 46 46 48 50 46 41 39 37 30 22 18
30 29 27 25 23 21 20 18 15 14 12 11 10 9 8 8 8 8 9 10 11 12 13 15 16 17 18 20 21 22 22 23 24 24 25 25 25 26 26 29 32 35 36 37 38 39 38 37 35 32 32 35 38 39 39 39 39 39 39 38 35 35 40 45 47 50 51 50 50 50 49 49 49 46 45 45 47 47 46 48 45 35 30 30 29
29 28 26 24 23 21 19 17 15 13 11 10 9 8 7 7 8 8 9 10 11 12 13 15 17 18 19 20 21 22 23 24 24 25 26 26 25 24 25 27 30 34 36 36 38 42 43 43 41 37 35 36 38 38 39 39 39 40 40 36 33 36 43 47 48 50 50 50 52 52 52 51 47 44 42 42 43 43 43 43 39 33 32 35 33
28 27 25 23 22 20 18 16 14 12 11 9 9 8 8 7 7 7 8 10 11 13 15 16 18 19 20 21 22 23 24 25 26 25 26 26 25 23 24 25 27 31 35 36 37 40 42 44 46 43 40 39 40 40 41 40 41 41 39 37 38 42 46 47 48 50 51 51 50 48 48 48 44 40 40 39 39 38 36 35 35 36 38 37 32
28 26 25 23 21 19 17 15 13 12 10 9 8 8 7 6 6 7 8 10 12 14 16 18 19 21 22 22 23 25 25 26 27 26 25 25 23 21 22 24 25 28 33 37 39 39 40 43 45 44 42 42 43 43 42 42 41 40 39 40 42 44 45 47 49 50 49 48 46 43 43 43 41 40 39 37 35 35 34 35 37 40 41 40 37
28 26 24 22 20 19 17 15 13 12 10 9 8 7 6 5 6 8 9 11 13 15 18 19 21 23 24 24 25 26 27 27 28 28 26 24 21 20 21 23 24 27 31 35 37 40 41 43 44 43 43 44 44 44 43 42 40 39 39 41 42 42 44 46 47 45 44 43 41 39 40 40 38 38 37 34 34 36 35 35 36 37 38 39 40
28 26 24 22 20 18 16 14 13 11 10 8 7 7 7 6 7 9 10 12 14 16 18 20 22 24 26 26 27 27 28 29 29 28 26 24 21 20 21 23 24 26 29 33 36 38 39 41 42 43 44 44 44 43 42 40 38 38 39 40 41 42 42 42 42 42 39 38 37 36 37 38 37 35 35 34 35 38 38 36 36 36 35 35 35
27 26 23 21 20 17 16 14 12 10 9 7 7 7 8 7 8 9 10 12 15 17 18 20 22 24 26 27 28 28 29 30 30 28 27 25 22 20 22 25 26 26 29 32 35 36 37 38 39 41 42 43 42 41 39 38 38 39 40 40 40 39 38 38 40 40 36 35 36 36 36 38 38 36 35 36 37 37 36 36 36 34 33 31 31
27 26 23 21 19 17 16 14 12 10 9 8 7 8 8 8 8 8 10 12 14 16 18 20 22 23 25 27 27 28 29 30 31 30 29 27 25 24 25 27 27 28 30 33 34 35 36 37 37 38 39 39 38 37 38 39 39 40 40 39 36 36 38 39 39 38 36 37 38 38 38 39 38 36 36 36 35 33 33 33 32 31 28 25 22
27 25 23 22 19 17 16 14 13 11 10 9 8 8 9 8 8 9 11 12 14 16 18 20 21 22 24 26 27 28 28 29 31 32 32 31 32 32 32 33 32 33 34 36 37 37 37 37 36 35 35 36 36 36 37 39 40 40 37 35 36 39 40 39 38 38 38 39 40 39 38 37 34 33 34 33 30 31 32 30 27 24 21 18 14
27 25 23 22 20 18 16 15 14 12 11 9 9 9 9 9 9 10 11 12 14 15 16 16 17 18 20 24 26 28 28 28 29 32 32 33 34 36 36 36 36 35 35 36 37 38 37 37 37 36 37 38 38 39 40 41 41 38 35 36 41 43 40 37 38 38 38 39 40 40 37 34 31 31 32 31 29 31 31 26 22 19 16 13 8
26 25 23 22 21 19 17 15 14 13 11 10 9 9 9 10 10 10 11 11 11 10 10 11 12 13 16 19 22 25 27 28 27 28 29 29 29 31 32 33 35 35 35 35 36 36 36 37 38 38 38 39 39 41 42 42 40 40 41 42 42 39 37 36 37 39 39 38 39 38 36 34 31 31 30 29 29 31 28 22 18 16 13 10 6
27 25 24 22 20 19 17 16 14 13 12 11 10 10 10 10 11 11 10 10 9 7 6 7 9 11 13 15 17 19 22 25 26 27 28 28 28 27 27 28 30 32 33 34 34 33 33 36 37 37 37 37 37 37 38 38 39 43 47 45 38 35 37 38 37 38 40 40 38 37 35 31 29 28 27 27 28 27 22 17 14 13 11 9 7
27 26 24 22 20 19 17 16 14 13 12 11 10 11 11 11 10 11 11 9 9 7 6 7 10 11 13 14 16 16 18 21 24 27 28 29 30 30 29 29 29 29 30 30 30 30 31 32 34 36 37 37 34 32 32 35 37 40 42 41 38 37 38 38 38 40 41 41 39 36 34 32 30 28 26 27 26 22 15 12 11 10 9 9 10
28 26 24 22 21 19 17 15 14 12 10 9 9 10 11 11 10 10 10 10 9 8 8 10 12 13 12 13 15 16 18 19 22 25 27 29 30 31 31 30 30 29 29 27 25 26 28 28 30 33 34 33 32 32 32 32 34 35 36 36 38 39 39 40 42 43 42 40 39 37 36 35 32 28 27 27 23 15 10 9 9 9 9 9 10
26 26 25 23 21 20 17 15 13 12 10 9 9 9 9 10 10 9 9 10 10 9 10 12 13 13 13 13 13 16 18 20 22 23 25 27 28 29 30 29 27 27 27 26 26 27 28 28 28 29 29 29 31 34 33 31 32 33 33 32 34 38 42 43 44 43 40 39 38 38 37 35 31 29 28 24 16 10 9 8 9 10 11 11 12
24 24 24 23 21 19 17 15 13 12 11 10 10 9 9 9 9 8 8 8 9 10 10 12 13 14 15 15 16 17 19 21 23 24 24 25 25 26 27 26 24 23 23 24 25 26 27 27 27 27 28 29 31 33 33 33 33 33 33 33 34 38 42 43 42 40 39 38 37 36 35 33 32 29 24 17 10 7 8 9 10 11 11 12 13
24 23 22 21 20 18 17 15 14 13 12 11 10 10 9 8 7 7 6 7 8 9 10 12 13 14 16 17 19 20 21 22 23 23 23 24 24 25 26 27 28 28 27 27 26 25 25 25 26 27 30 32 31 31 32 33 34 33 33 34 36 39 41 41 39 38 38 37 36 35 34 33 31 26 18 11 7 7 8 9 10 11 12 13 14
25 24 23 21 19 18 17 16 15 13 12 10 9 9 8 7 6 5 5 5 6 8 10 12 13 14 15 17 19 20 21 22 21 21 21 22 23 25 27 28 29 29 29 30 29 26 25 26 28 31 33 33 32 33 33 33 35 35 34 34 37 39 40 38 37 38 38 36 35 34 34 31 26 19 11 6 5 7 9 10 11 12 14 15 14
26 25 24 22 20 19 19 17 15 13 12 10 10 9 7 6 5 4 4 5 7 8 10 13 14 15 16 18 19 19 20 20 19 19 21 22 23 25 25 25 26 27 28 29 28 28 29 31 32 33 34 34 34 35 35 36 36 36 34 34 35 36 37 37 37 38 38 36 35 34 31 26 19 12 6 4 6 8 10 12 13 13 14 16 16
25 25 24 22 22 21 19 17 15 13 12 11 10 8 7 5 4 3 4 6 7 9 11 13 15 16 17 19 19 19 19 19 20 21 23 24 25 26 25 24 24 24 25 27 28 29 31 34 34 34 35 35 35 36 37 37 37 35 33 34 35 35 35 36 38 39 38 37 35 32 26 20 13 7 3 4 8 10 11 13 15 16 16 16 15
26 25 24 23 22 21 19 17 15 14 13 12 10 8 7 5 4 3 4 5 7 9 10 12 13 15 16 18 18 18 18 19 21 23 24 25 25 25 25 24 24 24 25 27 29 30 32 34 35 35 35 35 35 36 37 37 35 34 33 33 33 34 34 35 36 38 38 36 33 28 21 15 9 3 1 5 9 11 13 14 15 17 17 15 14
28 27 25 24 23 21 18 17 16 15 14 12 11 9 8 6 4 3 3 4 5 7 9 10 12 13 14 16 16 16 17 19 21 22 24 24 25 25 24 23 24 25 26 27 29 30 32 34 34 34 34 34 34 36 36 36 34 34 33 33 32 32 33 34 35 36 36 34 30 24 17 11 5 2 3 6 9 11 13 15 15 16 17 18 19
29 27 26 24 22 20 19 18 17 15 14 13 11 10 8 6 4 3 2 2 3 5 6 8 9 11 12 13 13 14 15 18 20 21 22 23 24 24 24 23 23 25 26 28 30 31 32 34 34 34 33 33 33 34 35 35 34 34 34 35 34 33 32 33 34 35 35 33 27 20 13 9 5 3 6 8 10 12 14 16 15 17 19 21 23
29 28 26 24 22 21 20 19 17 16 14 13 12 10 9 7 5 3 2 0 1 3 5 7 8 9 10 12 13 13 15 17 18 20 21 22 23 23 23 24 24 25 27 28 29 30 32 33 34 34 34 33 33 33 34 34 35 34 34 36 37 35 33 32 33 34 34 31 25 16 11 7 5 5 7 10 12 14 15 16 17 19 21 22 23
28 26 25 23 22 21 19 19 18 16 15 14 12 11 9 7 6 5 4 2 2 3 5 7 8 9 10 11 12 13 14 16 17 19 20 21 22 23 23 24 25 26 27 27 28 28 30 31 33 34 34 33 32 32 32 33 33 33 34 35 36 35 33 33 33 33 32 29 22 15 9 6 4 6 8 10 13 14 16 17 19 21 22 22 22
27 25 23 22 20 19 18 18 17 16 15 14 12 11 9 8 7 6 5 4 3 4 6 7 8 9 10 11 12 13 14 15 17 18 19 20 21 22 23 24 25 26 27 27 27 27 28 29 31 32 33 32 31 31 32 32 32 32 33 34 35 34 34 35 34 32 30 27 21 13 8 5 4 6 8 10 12 14 16 19 21 21 21 21 20
27 26 24 22 21 20 19 18 17 16 15 14 12 11 10 9 8 7 6 5 5 5 7 7 8 10 11 11 12 13 14 15 16 17 18 19 21 21 22 24 25 26 26 27 27 27 28 28 29 30 32 32 31 31 32 32 32 31 31 32 32 33 34 33 31 28 26 23 18 12 7 4 3 6 8 9 11 14 16 19 20 21 20 20 19
28 26 24 23 22 21 20 19 18 16 15 14 12 11 10 10 9 8 7 7 7 7 8 8 8 10 11 11 12 13 14 15 16 17 18 19 20 21 22 22 23 24 25 26 26 26 27 27 28 29 30 30 30 30 31 32 32 32 31 31 32 33 32 30 28 25 23 20 17 12 6 2 2 5 8 9 11 14 16 18 19 19 19 20 20
27 25 24 23 22 21 21 20 18 17 15 14 12 11 10 10 10 9 9 8 8 8 8 8 9 10 10 11 12 13 14 15 16 17 18 19 20 21 21 22 22 23 24 24 25 25 26 26 27 27 28 28 28 29 30 32 32 32 32 32 33 34 33 30 27 24 21 19 15 11 7 3 1 5 7 9 12 14 16 17 17 17 19 20 20
27 25 24 24 22 21 21 20 19 17 16 14 13 12 12 11 11 11 10 9 9 9 9 9 9 10 10 11 12 13 14 15 17 17 18 19 20 21 21 22 22 23 23 24 24 24 24 25 25 26 27 27 27 27 28 30 32 32 32 32 32 33 32 30 27 25 21 18 14 10 7 4 2 4 7 9 11 14 16 17 18 18 18 19 19
27 26 26 24 23 22 22 21 19 18 16 14 14 14 13 13 13 12 11 10 10 9 9 9 9 10 11 12 13 14 15 17 17 18 19 19 20 21 22 22 23 23 24 24 24 24 24 24 24 24 25 26 26 26 26 27 30 31 31 30 30 30 30 29 28 26 23 19 14 10 7 4 2 3 6 9 11 12 15 16 17 18 19 19 19
28 27 25 24 23 22 21 20 19 17 15 15 15 15 14 14 14 13 12 12 11 10 9 10 10 11 13 14 14 15 16 17 18 19 20 20 20 21 21 22 23 24 24 25 24 24 23 23 23 24 24 24 25 25 25 25 27 29 29 28 27 28 28 27 27 26 24 21 16 11 7 3 2 3 5 8 9 11 13 15 16 17 18 18 19
27 26 25 24 23 22 21 20 19 18 17 17 16 16 15 15 15 13 13 13 12 11 10 11 11 12 13 14 15 16 17 18 19 19 20 21 21 22 22 23 23 24 25 25 25 24 23 23 22 23 23 23 23 24 24 24 25 26 26 26 25 25 26 25 25 25 24 21 17 13 9 5 2 2 4 7 8 10 12 13 15 16 17 17 18
Wind_Direction
157 156 156 157 156 154 154 154 152 148 143 139 133 127 123 119 115 112 108 104 99 97 93 89 86 81 77 73 68 65 59 55 51 45 41 36 31 25 19 15 11 6 3 0 357 351 344 342 342 340 336 329 327 326 323 320 315 306 300 292 284 277 274 274 269 280 288 290 289 289 293 294 292 291 289 288 288 287 285 284 284 282 280 278 278
154 153 152 152 150 147 147 145 142 139 135 130 125 121 118 114 112 111 106 101 98 95 91 87 84 78 75 71 65 61 55 49 44 37 33 29 24 20 14 8 5 360 357 355 352 348 342 337 338 338 333 327 323 323 321 317 313 306 300 294 286 280 273 269 269 274 285 291 292 291 293 291 289 290 289 286 288 289 287 285 284 282 280 279 277
150 150 148 146 143 142 140 138 136 133 129 125 121 118 115 112 111 108 104 101 97 93 88 85 82 77 73 67 61 56 49 43 37 30 26 22 17 13 8 2 359 355 351 350 347 344 340 335 334 335 330 324 321 321 319 315 311 305 299 294 287 284 279 266 265 268 275 286 291 292 293 291 287 288 288 286 285 286 285 283 282 281 279 277 276
148 147 144 140 138 137 134 133 132 129 125 122 120 117 115 113 111 106 103 100 94 91 87 83 79 73 67 60 54 49 43 37 32 25 20 16 10 6 3 358 354 351 347 345 343 340 336 331 331 331 327 322 320 319 318 314 310 305 300 296 289 286 283 272 263 264 267 279 287 289 291 290 288 287 288 287 285 283 282 282 282 280 279 277 274
146 144 141 137 135 134 132 132 130 126 124 122 119 118 115 113 110 105 102 98 93 89 84 78 72 64 59 54 48 43 38 32 26 20 15 9 4 359 357 353 350 347 344 342 340 336 333 329 328 328 324 319 317 317 315 312 309 305 300 297 292 288 286 279 269 266 265 268 278 285 289 289 288 287 286 286 286 286 283 281 281 280 279 278 274
145 142 139 136 133 132 131 130 128 125 124 121 119 118 115 112 109 105 100 95 90 85 77 71 65 59 54 49 43 38 32 26 20 15 9 4 360 355 352 349 346 344 341 339 337 334 330 328 326 325 322 317 315 315 312 310 308 303 299 297 295 291 287 282 277 270 266 267 272 280 286 288 288 287 287 285 283 284 285 285 284 280 278 277 276
143 140 138 135 132 131 130 129 127 125 123 121 119 118 115 112 108 102 98 92 86 79 72 66 60 56 50 43 38 31 25 21 13 9 5 359 356 352 348 346 343 340 339 336 334 332 329 327 325 323 321 317 314 313 312 309 307 303 299 297 296 292 287 284 281 274 270 270 271 275 280 284 285 285 287 288 283 280 281 283 284 284 281 278 277
142 139 137 134 132 131 130 128 127 125 124 122 120 118 115 111 106 101 96 89 82 75 68 62 56 51 44 38 32 25 19 15 8 3 359 355 351 349 345 343 341 338 336 334 332 331 329 326 324 322 320 318 315 313 311 308 304 302 300 297 294 292 288 285 282 278 273 272 272 275 278 281 283 284 288 289 284 281 281 277 277 282 285 284 281
141 139 137 134 132 132 131 130 129 127 126 124 120 117 113 108 104 99 92 83 76 69 62 56 50 44 38 32 27 21 13 9 4 359 355 351 348 346 344 342 341 337 334 333 331 330 329 326 324 322 320 318 316 313 310 307 302 299 300 299 295 291 289 286 283 280 277 275 275 277 278 278 281 285 288 286 283 285 288 284 278 280 286 288 285
141 139 137 134 134 134 133 132 131 130 128 124 120 116 112 108 102 95 88 80 72 64 56 49 42 36 31 26 20 16 9 3 359 355 353 352 349 347 345 342 341 337 333 331 330 328 328 325 323 322 320 318 317 315 312 309 304 300 298 298 296 292 289 287 284 282 279 276 276 277 278 277 279 282 284 285 287 289 289 287 284 285 288 287 286
142 141 138 136 137 137 135 134 133 130 127 123 120 115 111 106 100 92 84 76 67 61 52 44 38 30 25 21 15 11 6 360 357 355 354 356 352 348 345 341 339 336 333 330 328 327 326 325 323 322 321 320 319 317 314 311 308 304 301 299 296 292 288 285 284 284 281 278 276 276 274 275 279 282 282 285 288 289 287 286 286 287 287 284 284
144 142 139 139 140 139 137 136 132 129 126 123 119 114 110 105 98 89 80 72 63 55 46 38 33 25 20 18 14 10 6 1 359 358 357 357 355 348 344 341 338 335 333 330 328 327 326 325 325 323 322 322 321 319 317 315 312 310 306 303 300 296 291 286 283 282 281 279 278 276 275 276 279 281 282 285 288 288 288 286 283 282 281 279 276
145 143 141 142 141 139 138 136 132 128 125 122 118 113 109 103 95 84 75 67 56 48 42 35 29 22 17 16 14 11 9 5 2 1 358 356 353 348 343 340 336 333 332 330 328 327 327 326 325 324 324 324 323 322 320 319 317 315 312 309 305 302 299 294 289 285 282 279 277 276 277 279 280 281 283 286 287 288 288 286 283 281 279 277 276
145 144 143 142 141 139 138 135 131 128 125 121 118 114 107 99 90 80 69 59 49 41 36 30 26 21 16 15 15 12 9 6 3 360 356 354 351 347 342 338 335 333 331 330 329 327 327 326 324 323 324 324 325 325 323 321 319 316 315 314 311 308 307 303 300 295 288 282 278 278 280 281 281 282 284 284 283 283 283 283 284 284 281 280 279
146 145 144 142 141 140 137 133 130 127 125 122 117 112 104 95 85 74 60 50 43 35 30 25 21 19 17 14 13 13 9 6 3 358 354 352 349 345 341 338 335 333 331 331 330 327 327 326 324 322 323 323 324 325 325 323 321 319 317 316 313 311 309 307 306 302 297 292 286 284 284 285 284 283 284 283 281 279 279 280 281 281 281 281 279
147 146 145 143 142 140 137 134 131 126 125 122 116 109 100 90 80 69 57 47 39 32 26 22 18 17 17 14 11 12 9 4 2 358 353 351 348 345 343 340 336 334 332 331 330 328 327 327 325 324 323 322 324 325 325 323 321 318 315 313 311 311 309 308 308 304 300 297 294 291 290 289 287 287 286 285 283 282 281 280 278 279 279 278 276
149 148 147 145 143 140 137 135 132 129 127 123 115 105 95 85 74 62 53 42 34 28 23 22 20 16 16 14 10 9 8 4 0 358 355 352 348 346 344 340 336 334 332 331 330 329 328 328 327 326 324 322 322 322 321 321 318 315 312 310 310 309 309 310 311 308 305 303 299 295 292 290 290 290 289 289 288 285 282 279 277 279 279 276 275
152 150 148 146 144 140 138 137 134 132 130 123 112 101 91 82 69 55 48 38 30 25 20 20 20 16 14 14 11 7 6 3 359 357 356 354 351 348 345 340 336 333 332 331 330 329 328 327 327 326 322 320 318 318 318 319 317 314 311 310 307 306 308 311 312 310 309 308 305 301 297 294 293 292 291 292 292 288 283 278 276 278 278 277 278
154 152 149 147 144 141 139 139 137 135 130 120 110 101 90 80 66 50 42 36 28 23 18 16 17 17 15 13 11 8 4 3 360 357 357 357 354 350 347 342 337 334 332 330 329 327 326 325 325 324 320 317 317 316 317 317 315 312 310 308 305 303 308 311 310 309 308 307 306 303 300 298 295 291 290 292 292 289 282 274 269 270 274 276 275
155 152 149 147 145 143 141 140 138 135 130 119 110 102 89 77 66 49 37 31 26 21 17 15 14 14 14 13 11 8 4 2 1 358 357 358 357 352 348 345 339 333 329 328 326 325 324 324 324 323 320 318 317 316 316 315 313 311 309 307 303 304 308 310 309 308 307 304 302 300 299 299 296 291 291 292 292 290 282 272 265 264 269 271 271
154 152 149 148 146 144 142 141 139 135 129 120 112 102 86 72 59 44 33 28 25 21 16 14 12 11 12 12 10 8 4 1 360 359 359 359 358 353 348 344 338 330 326 324 324 322 322 322 322 322 321 320 318 316 315 314 313 310 308 305 304 306 309 310 308 307 305 301 300 298 298 299 296 293 293 293 292 289 284 277 272 270 267 264 265
153 152 150 149 148 145 143 141 139 135 130 121 110 98 86 73 56 43 35 29 25 20 14 10 7 6 9 10 8 5 4 1 359 360 1 0 356 350 345 340 336 331 325 322 321 320 319 319 320 320 320 319 318 317 316 315 315 311 308 308 308 309 310 309 307 305 302 300 298 296 296 297 295 295 295 295 294 291 284 279 275 271 267 264 263
155 153 152 150 148 146 144 143 141 136 129 121 113 102 92 77 60 49 40 31 24 19 13 8 4 2 4 7 5 3 2 0 359 358 359 357 351 345 341 337 335 331 325 319 318 318 318 318 319 319 319 317 317 317 317 317 316 314 312 312 312 312 312 310 308 305 302 300 298 295 295 295 293 294 295 294 296 296 291 286 281 275 272 270 267
157 155 154 152 149 147 146 145 143 135 128 127 124 112 98 80 65 55 43 31 24 19 15 10 6 3 1 0 0 0 359 358 357 356 355 352 346 341 339 336 333 329 323 318 316 316 316 317 317 318 317 317 317 318 318 318 318 317 315 315 314 314 313 311 310 308 305 302 300 296 295 294 291 291 292 294 298 299 297 296 292 284 278 273 267
159 157 154 152 150 150 149 145 139 135 134 136 128 110 96 81 67 56 44 32 26 23 19 14 9 4 359 356 354 354 354 354 354 353 351 348 343 339 336 334 332 329 324 319 318 316 315 316 317 317 317 316 317 319 319 318 318 317 316 316 316 316 315 314 313 312 309 305 303 299 296 294 291 289 291 295 298 299 299 300 296 287 278 273 267
160 157 155 153 152 152 149 143 140 141 142 137 124 107 91 78 67 56 46 37 31 27 22 16 11 4 357 352 348 348 349 350 350 349 347 345 341 338 336 335 333 330 326 322 320 319 318 318 318 317 316 316 317 317 316 316 317 317 318 317 317 318 318 315 313 312 309 307 305 303 299 295 292 291 295 298 298 299 300 298 293 284 276 270 264
161 158 156 155 155 154 149 147 148 148 144 134 121 106 91 81 69 58 50 40 33 30 24 17 11 2 353 348 344 344 345 347 347 346 344 342 340 339 338 336 334 332 329 326 324 322 320 319 318 317 317 317 317 318 319 319 320 319 318 318 319 319 317 313 310 309 308 308 308 306 301 297 294 296 299 300 298 299 300 296 287 277 269 259 252
161 159 159 158 157 155 154 156 155 150 143 134 122 108 96 87 76 64 53 42 34 31 25 17 9 359 349 345 342 341 341 343 343 342 340 339 338 337 336 335 333 331 328 326 324 322 320 319 320 322 324 324 325 325 325 324 322 320 319 320 320 318 316 315 313 311 310 310 311 310 306 301 299 301 302 300 298 298 299 293 279 266 255 243 227
163 162 162 160 158 158 160 160 156 148 140 130 117 105 95 89 83 74 63 52 45 37 23 13 6 357 350 349 345 338 334 335 336 334 333 334 334 334 333 331 330 328 326 325 325 323 323 323 325 327 328 328 329 328 326 325 323 322 321 321 320 319 319 319 317 314 312 311 310 309 307 303 301 302 301 299 298 298 295 286 269 251 236 219 193
164 164 164 162 162 163 164 160 154 148 140 131 118 104 94 89 85 80 71 65 66 60 35 15 8 0 354 353 348 335 325 325 329 331 331 332 333 333 332 330 329 327 326 327 326 325 325 326 326 328 328 327 325 323 322 323 323 322 322 322 321 321 320 319 317 315 314 313 310 308 305 301 299 300 299 298 297 296 289 274 253 233 216 192 155
166 166 166 166 167 167 166 162 157 150 142 134 123 111 102 95 85 79 79 81 83 77 54 28 20 15 3 351 344 337 328 327 331 333 335 335 335 335 335 334 332 330 329 329 327 326 328 327 326 326 326 323 321 321 324 324 322 320 320 321 320 321 321 319 318 318 316 314 313 311 309 305 302 300 300 299 296 289 275 253 231 212 197 175 147
171 169 169 170 170 168 167 163 158 151 141 131 120 111 105 101 92 86 87 89 83 70 50 33 26 20 9 354 345 342 338 336 336 337 338 338 337 337 337 337 336 335 335 336 332 328 327 325 322 322 323 322 323 325 327 325 321 319 318 318 318 320 320 320 320 319 317 315 316 316 314 310 307 304 302 299 293 276 246 221 203 182 164 149 136
178 175 173 173 171 168 167 165 159 153 145 134 120 106 98 95 91 87 87 84 76 64 47 36 28 21 15 7 356 347 344 344 344 344 343 342 341 339 337 337 339 341 343 343 339 333 329 326 323 323 325 326 326 326 324 322 320 318 316 314 314 316 319 321 322 320 318 318 319 318 316 313 310 307 304 298 285 253 214 191 176 161 147 134 125
182 180 177 176 173 170 168 166 162 156 148 136 122 108 96 87 79 73 68 65 62 58 49 41 33 26 20 14 5 358 355 355 354 351 349 347 345 341 337 339 344 349 351 348 342 335 331 329 327 327 327 326 325 323 322 320 320 318 316 315 314 316 319 322 322 320 320 320 320 318 316 315 312 309 303 292 266 223 192 172 160 150 140 132 126
181 179 177 176 175 172 169 167 164 158 148 136 124 114 105 94 83 71 58 49 43 40 38 37 35 29 23 16 9 5 6 4 359 355 353 349 346 346 347 350 352 352 351 349 344 337 332 329 326 324 323 322 321 320 319 318 318 318 316 315 317 318 320 322 322 322 322 322 320 319 318 316 314 308 297 276 234 190 169 158 152 146 138 133 128
180 179 177 176 175 173 170 168 163 156 146 136 127 119 111 104 97 85 68 54 40 28 23 25 28 29 25 17 11 9 11 8 0 355 354 351 351 356 358 356 351 347 346 345 342 336 331 327 324 322 321 320 319 319 318 318 318 318 316 315 317 318 320 321 323 324 324 323 322 321 320 318 314 306 290 254 201 172 157 147 141 138 135 133 130
182 181 179 176 175 173 170 167 161 153 145 139 132 126 121 117 111 97 71 52 38 28 22 18 17 19 19 15 12 11 10 5 359 356 357 357 359 3 3 356 348 344 342 340 337 333 329 328 328 326 324 322 322 322 322 321 321 319 317 317 318 318 319 322 325 327 327 326 325 324 323 321 316 304 276 205 157 147 144 139 133 128 129 132 130
183 183 180 176 175 174 170 165 160 153 148 144 140 137 137 137 130 104 68 48 33 25 21 17 13 10 8 6 7 6 1 358 357 357 359 1 2 2 0 356 350 345 339 336 335 332 330 330 331 330 328 326 326 326 325 324 323 320 319 319 320 319 320 325 329 331 331 330 328 328 326 324 320 307 256 174 145 137 137 136 132 127 127 128 127
182 181 179 177 176 174 170 165 160 156 153 152 153 154 157 157 146 109 63 44 32 23 16 11 9 7 3 1 2 358 352 351 352 353 354 357 358 358 357 354 349 344 338 336 336 334 332 332 332 332 331 330 330 329 328 327 325 323 321 321 320 320 321 325 329 332 333 332 330 330 330 329 328 320 195 153 141 137 135 133 131 130 128 123 119
182 180 179 178 175 173 170 165 162 161 160 161 165 168 171 169 154 118 67 39 27 18 9 2 1 1 359 358 357 350 343 345 349 350 350 352 353 354 354 350 344 341 339 337 338 337 335 334 333 333 332 332 332 332 332 330 327 325 325 324 322 319 321 326 330 333 334 334 333 333 334 336 342 13 113 125 131 133 130 126 126 127 125 121 118
183 181 180 179 176 173 170 167 166 166 167 170 176 178 178 173 159 138 101 44 17 4 355 350 351 353 352 352 351 345 340 344 349 349 350 350 349 349 348 344 341 340 340 339 340 340 338 336 336 335 334 334 334 335 335 334 332 330 329 329 327 323 321 326 332 335 336 337 337 338 340 344 3 62 94 109 119 124 122 120 121 122 121 121 122
184 183 181 179 177 175 173 170 170 171 175 180 184 185 183 177 171 173 182 184 347 335 331 333 336 340 343 345 346 344 343 347 349 349 348 349 347 345 344 342 341 341 342 342 343 342 340 339 339 338 337 336 337 337 337 335 335 333 332 332 333 331 327 328 334 337 339 339 340 343 349 1 34 78 100 113 119 119 118 119 122 123 122 123 126
186 184 181 179 179 178 175 173 173 177 183 189 189 187 186 186 186 193 205 223 275 298 307 314 319 325 333 338 339 340 343 346 348 347 346 345 344 343 343 343 343 344 346 346 346 344 342 342 343 342 341 339 339 339 339 337 337 337 337 336 337 336 335 336 338 339 340 340 341 344 353 11 54 92 109 120 123 121 121 124 127 126 126 128 131
186 184 181 180 179 177 177 178 180 183 188 193 194 191 190 194 200 205 215 231 258 278 290 300 307 314 323 328 331 335 339 342 343 342 341 340 340 341 342 344 345 346 348 348 348 346 345 344 345 346 346 345 343 343 344 344 343 342 343 342 340 339 340 343 344 342 340 339 339 342 355 18 64 104 117 125 129 128 127 129 131 130 131 133 134
187 184 181 180 180 180 182 185 186 189 193 198 199 197 197 204 210 213 222 237 254 269 279 290 301 306 311 318 324 329 333 336 336 335 335 335 337 339 341 344 345 346 347 348 349 348 347 345 345 346 348 349 348 347 348 351 351 349 349 348 345 342 342 345 345 343 341 339 337 337 348 18 76 113 120 124 129 131 133 135 136 135 135 137 137
187 184 182 182 183 185 188 189 189 191 198 204 207 206 207 214 220 224 232 242 252 264 275 285 294 298 304 313 321 326 330 331 330 329 331 332 334 336 338 340 342 344 345 346 347 348 348 347 347 347 349 351 351 350 351 354 356 355 355 354 351 348 347 348 347 345 344 341 336 331 330 345 97 126 132 133 132 132 133 135 137 138 140 142 141
187 184 183 185 186 188 190 192 191 193 199 206 211 216 220 225 230 235 241 247 254 263 273 281 288 295 304 313 319 324 327 327 326 328 330 331 332 333 334 335 337 340 341 343 344 345 347 348 349 349 350 351 352 353 354 356 358 358 359 360 358 356 356 355 353 350 348 344 337 329 319 307 163 147 148 147 143 140 139 140 143 145 145 144 142
186 184 184 186 188 189 192 194 194 196 199 203 211 220 227 235 241 245 249 253 257 262 269 278 288 298 306 313 318 321 323 323 324 327 329 330 332 332 331 331 333 334 335 337 339 342 344 346 348 349 350 351 352 353 355 357 359 360 -0 1 1 1 1 1 360 357 354 349 341 331 318 300 222 169 161 156 153 151 149 149 150 151 148 145 143
187 186 186 187 188 191 195 198 199 200 201 203 211 221 229 238 245 249 252 255 258 262 269 279 290 299 306 311 315 318 318 319 321 324 326 328 330 331 330 330 331 330 330 331 333 336 340 343 344 346 348 349 350 352 354 357 359 359 359 359 1 1 3 5 6 5 1 357 351 341 326 306 242 173 165 163 161 160 158 155 154 154 151 148 147
189 188 188 189 190 193 198 202 204 205 206 209 216 224 231 237 242 246 250 253 257 263 271 282 291 299 304 308 312 314 315 317 319 321 323 325 327 328 327 327 327 327 327 327 328 330 334 338 340 342 344 346 347 349 351 355 358 358 357 357 359 1 2 5 9 10 7 2 357 352 341 317 244 178 169 168 166 164 162 159 157 156 155 153 153
190 189 190 192 194 196 200 204 206 208 211 215 221 226 231 236 240 244 247 252 259 267 276 284 292 297 301 306 309 310 312 315 317 318 321 323 324 325 324 323 323 323 324 324 325 326 328 331 335 338 340 342 344 345 346 350 354 355 354 355 358 1 3 5 9 12 12 8 2 357 353 340 297 196 178 177 175 170 167 164 162 161 160 159 159